GW2741 Weather Reports


time (UTC)temp
C
wind
direction
speed
KPH
gust
KPH
rain 1hr
cm
rain 24hr
cm
rain mn
cm
humidity
%
barometer
mb
20260504150802 15 305 6.4 11.3 0.00 0.00 0.00 42 1013.9
20260504140502 13 323 8.0 19.3 0.00 0.00 0.00 43 1014.3
20260504130202 14 327 9.7 14.5 0.00 0.00 0.00 43 1014.3
20260504100202 13 321 8.0 16.1 0.00 0.00 0.00 41 1013.7
20260503222717 10 22 8.0 12.9 0.00 0.03 0.03 92 1016.1
20260503221817 10 22 8.0 12.9 0.00 0.03 0.03 92 1016.0
20260503220917 10 22 8.0 12.9 0.00 0.03 0.03 92 1016.0
20260503220017 10 22 8.0 12.9 0.00 0.03 0.03 92 1015.9
20260503215117 10 22 8.0 12.9 0.00 0.03 0.03 92 1016.0
20260503214217 10 22 8.0 12.9 0.00 0.03 0.03 92 1016.0
20260503213317 10 22 8.0 12.9 0.00 0.03 0.03 92 1016.2
20260503212417 10 22 8.0 12.9 0.00 0.03 0.03 92 1016.2
20260503210617 10 22 8.0 12.9 0.00 0.03 0.03 92 1016.2
20260503205717 10 22 8.0 12.9 0.00 0.03 0.03 92 1016.3
20260503204817 10 22 8.0 12.9 0.00 0.05 0.03 92 1015.9
20260503203917 10 22 8.0 12.9 0.00 0.05 0.03 92 1016.0
20260503202117 10 22 8.0 12.9 0.00 0.05 0.03 92 1015.9
20260503200317 10 22 8.0 12.9 0.00 0.10 0.03 92 1015.6
20260503195419 10 22 8.0 12.9 0.00 0.10 0.03 92 1015.6
20260503194517 10 22 8.0 12.9 0.00 0.10 0.03 92 1015.7
20260503192717 10 22 8.0 12.9 0.00 0.10 0.03 92 1015.5
20260503191817 10 22 8.0 12.9 0.00 0.10 0.03 92 1015.2
20260503190017 10 22 8.0 12.9 0.00 0.10 0.03 92 1015.3
20260503185117 10 22 8.0 12.9 0.00 0.10 0.03 92 1015.2
20260503183317 10 22 8.0 12.9 0.00 0.13 0.03 92 1015.1
20260503182417 10 22 8.0 12.9 0.00 0.18 0.03 92 1015.1
20260503180617 10 22 8.0 12.9 0.00 0.30 0.03 92 1015.1
20260503175717 10 22 8.0 12.9 0.00 0.33 0.03 92 1015.0
20260503174817 10 22 8.0 12.9 0.00 0.36 0.03 92 1015.2
20260503173917 10 22 8.0 12.9 0.00 0.38 0.03 92 1015.1
20260503173017 10 22 8.0 12.9 0.00 0.38 0.03 92 1015.1
20260503172117 10 22 8.0 12.9 0.00 0.38 0.03 92 1014.8
20260503171217 10 22 8.0 12.9 0.00 0.38 0.03 92 1015.1